GW0360 Weather Reports


Display with metric or nautical units.
time (UTC)temp
F
wind
direction
speed
MPH
gust
MPH
rain 1hr
in
rain 24hr
in
rain mn
in
humidity
%
barometer
mb
20260904184044 95 180 5.0 11.0 0.00 0.00 0.00 49 1013.9
20260904183543 95 239 3.0 10.0 0.00 0.00 0.00 50 1013.9
20260904183118 95 74 3.0 12.0 0.00 0.00 0.00 51 1013.9
20260904182542 94 208 5.0 12.0 0.00 0.00 0.00 51 1014.0
20260904182040 94 0 2.0 12.0 0.00 0.00 0.00 52 1013.9
20260904181602 94 74 3.0 11.0 0.00 0.00 0.00 51 1014.0
20260904181040 94 271 2.0 11.0 0.00 0.00 0.00 52 1014.0
20260904180545 93 217 3.0 12.0 0.00 0.00 0.00 52 1014.2
20260904180115 93 203 5.0 12.0 0.00 0.00 0.00 52 1014.1
20260904175546 93 292 2.0 12.0 0.00 0.00 0.00 54 1014.2
20260904175040 93 263 5.0 12.0 0.00 0.00 0.00 52 1014.3
20260904174610 93 221 2.0 9.0 0.00 0.00 0.00 55 1014.4
20260904174040 93 277 3.0 10.0 0.00 0.00 0.00 54 1014.5
20260904173543 92 136 4.0 10.0 0.00 0.00 0.00 55 1014.4
20260904173117 92 167 2.0 15.0 0.00 0.00 0.00 56 1014.5
20260904172546 92 206 4.0 15.0 0.00 0.00 0.00 56 1014.4
20260904172041 92 249 4.0 8.0 0.00 0.00 0.00 55 1014.5
20260904171608 92 201 2.0 10.0 0.00 0.00 0.00 58 1014.6
20260904171040 92 213 5.0 10.0 0.00 0.00 0.00 57 1014.6
20260904170541 91 98 0.0 10.0 0.00 0.00 0.00 58 1014.6
20260904170108 91 232 4.0 10.0 0.00 0.00 0.00 59 1014.7
20260904165620 91 248 2.0 10.0 0.00 0.00 0.00 59 1014.6
20260904165043 90 237 1.0 10.0 0.00 0.00 0.00 58 1014.6
20260904164600 90 305 5.0 11.0 0.00 0.00 0.00 58 1014.7
20260904164044 90 180 3.0 11.0 0.00 0.00 0.00 59 1014.6
20260904163546 90 254 4.0 12.0 0.00 0.00 0.00 59 1014.7
20260904163107 90 198 5.0 14.0 0.00 0.00 0.00 58 1014.7
20260904162543 89 194 5.0 14.0 0.00 0.00 0.00 58 1014.6
20260904162042 90 227 4.0 14.0 0.00 0.00 0.00 57 1014.5
20260904161618 90 262 4.0 14.0 0.00 0.00 0.00 58 1014.5
20260904161040 90 238 5.0 11.0 0.00 0.00 0.00 59 1014.5
20260904160540 89 222 4.0 11.0 0.00 0.00 0.00 58 1014.6
20260904160059 88 202 3.0 8.0 0.00 0.00 0.00 61 1014.6
20260904155542 88 153 1.0 11.0 0.00 0.00 0.00 62 1014.6
20260904155044 88 157 4.0 11.0 0.00 0.00 0.00 62 1014.6
20260904154602 88 247 5.0 11.0 0.00 0.00 0.00 61 1014.6
20260904154043 87 207 4.0 11.0 0.00 0.00 0.00 62 1014.7
20260904153543 87 234 4.0 11.0 0.00 0.00 0.00 62 1014.7
20260904153108 87 221 4.0 10.0 0.00 0.00 0.00 63 1014.6
20260904152541 86 150 3.0 9.0 0.00 0.00 0.00 64 1014.7
20260904152040 86 185 2.0 12.0 0.00 0.00 0.00 65 1014.7
20260904151606 86 222 4.0 13.0 0.00 0.00 0.00 64 1014.7
20260904151040 85 205 3.0 13.0 0.00 0.00 0.00 65 1014.7
20260904150540 85 196 1.0 9.0 0.00 0.00 0.00 68 1014.9
20260904145542 84 309 3.0 8.0 0.00 0.00 0.00 68 1014.8
20260904145043 84 209 1.0 9.0 0.00 0.00 0.00 70 1014.8
20260904144622 84 244 2.0 9.0 0.00 0.00 0.00 69 1015.0
20260904144040 83 215 4.0 9.0 0.00 0.00 0.00 69 1014.9
20260904143546 83 184 2.0 6.0 0.00 0.00 0.00 70 1014.8
20260904143104 83 227 2.0 7.0 0.00 0.00 0.00 70 1014.9
20260904142541 83 211 1.0 8.0 0.00 0.00 0.00 72 1014.7
20260904142041 82 245 1.0 8.0 0.00 0.00 0.00 72 1014.8
20260904141604 82 153 1.0 6.0 0.00 0.00 0.00 73 1014.8
20260904141040 81 225 1.0 7.0 0.00 0.00 0.00 73 1014.7
20260904140540 81 140 2.0 7.0 0.00 0.00 0.00 74 1014.8
20260904135543 80 142 1.0 6.0 0.00 0.00 0.00 76 1014.7
20260904135043 79 181 2.0 6.0 0.00 0.00 0.00 76 1014.7
20260904134608 79 193 1.0 5.0 0.00 0.00 0.00 76 1014.7
20260904134043 79 0 0.0 4.0 0.00 0.00 0.00 76 1014.7
20260904133544 78 219 0.0 3.0 0.00 0.00 0.00 77 1014.6
20260904133103 78 0 0.0 3.0 0.00 0.00 0.00 78 1014.6
20260904132544 78 217 1.0 4.0 0.00 0.00 0.00 77 1014.6
20260904132043 78 229 0.0 4.0 0.00 0.00 0.00 78 1014.5
20260904131558 77 211 0.0 4.0 0.00 0.00 0.00 78 1014.5
20260904131044 77 0 0.0 4.0 0.00 0.00 0.00 78 1014.4
20260904130540 77 0 0.0 4.0 0.00 0.00 0.00 78 1014.5
20260904125540 77 186 0.0 3.0 0.00 0.00 0.00 79 1014.4
20260904125039 77 0 0.0 3.0 0.00 0.00 0.00 78 1014.5
20260904124609 77 0 0.0 3.0 0.00 0.00 0.00 78 1014.4
20260904124043 76 0 1.0 3.0 0.00 0.00 0.00 79 1014.4
20260904123543 76 173 0.0 1.0 0.00 0.00 0.00 80 1014.3
20260904123144 76 0 0.0 1.0 0.00 0.00 0.00 80 1014.1
20260904122543 76 0 0.0 2.0 0.00 0.00 0.00 80 1014.1
20260904122041 76 0 0.0 2.0 0.00 0.00 0.00 80 1014.1
20260904121602 76 0 0.0 2.0 0.00 0.00 0.00 79 1014.0
20260904121044 76 0 0.0 2.0 0.00 0.00 0.00 80 1014.0
20260904120542 76 0 0.0 4.0 0.00 0.00 0.00 79 1014.0
20260904120129 76 205 0.0 4.0 0.00 0.00 0.00 79 1014.0
20260904115540 76 215 1.0 4.0 0.00 0.00 0.00 78 1013.9
20260904115040 77 0 0.0 3.0 0.00 0.00 0.00 78 1013.9
20260904114559 77 232 0.0 3.0 0.00 0.00 0.00 77 1013.9
20260904114040 77 240 0.0 3.0 0.00 0.00 0.00 77 1013.9
20260904113542 77 229 0.0 3.0 0.00 0.00 0.00 77 1013.9
20260904113102 77 200 1.0 3.0 0.00 0.00 0.00 77 1013.7
20260904112543 77 0 0.0 2.0 0.00 0.00 0.00 77 1013.8
20260904112049 77 0 0.0 2.0 0.00 0.00 0.00 76 1013.8
20260904111612 77 0 0.0 6.0 0.00 0.00 0.00 76 1013.7
20260904111043 78 0 1.0 6.0 0.00 0.00 0.00 76 1013.6
20260904110543 78 264 0.0 5.0 0.00 0.00 0.00 77 1013.5
20260904110110 78 215 1.0 5.0 0.00 0.00 0.00 76 1013.4
20260904105539 78 0 2.0 7.0 0.00 0.00 0.00 76 1013.4
20260904105043 78 240 0.0 7.0 0.00 0.00 0.00 75 1013.3
20260904104600 78 187 2.0 7.0 0.00 0.00 0.00 75 1013.1
20260904104040 78 219 1.0 6.0 0.00 0.00 0.00 75 1013.1
20260904103542 79 238 1.0 8.0 0.00 0.00 0.00 74 1013.1
20260904103100 79 0 2.0 8.0 0.00 0.00 0.00 74 1013.1
20260904102540 79 208 1.0 8.0 0.00 0.00 0.00 73 1013.1
20260904102041 79 265 2.0 9.0 0.00 0.00 0.00 73 1013.0
20260904101603 79 221 2.0 9.0 0.00 0.00 0.00 73 1013.0
20260904101042 79 196 3.0 6.0 0.00 0.00 0.00 73 1013.0
20260904100628 79 0 1.0 7.0 0.00 0.00 0.00 72 1013.0
20260904095541 80 248 1.0 8.0 0.00 0.00 0.00 72 1013.0
20260904095044 80 268 2.0 9.0 0.00 0.00 0.00 72 1013.0
20260904094613 80 265 3.0 9.0 0.00 0.00 0.00 71 1012.7
20260904094043 80 196 2.0 10.0 0.00 0.00 0.00 72 1012.8
20260904093545 80 234 2.0 11.0 0.00 0.00 0.00 72 1012.8
20260904093106 80 0 3.0 11.0 0.00 0.00 0.00 72 1012.8
20260904092540 80 222 2.0 6.0 0.00 0.00 0.00 72 1012.7
20260904092043 80 263 1.0 6.0 0.00 0.00 0.00 72 1012.7
20260904091602 80 207 2.0 7.0 0.00 0.00 0.00 71 1012.6
20260904091043 80 202 2.0 7.0 0.00 0.00 0.00 71 1012.6
20260904090544 80 184 2.0 6.0 0.00 0.00 0.00 71 1012.6
20260904090101 80 240 1.0 7.0 0.00 0.00 0.00 71 1012.5
20260904085540 81 0 2.0 9.0 0.00 0.00 0.00 70 1012.5
20260904085041 81 0 2.0 9.0 0.00 0.00 0.00 70 1012.4
20260904084558 81 210 2.0 9.0 0.00 0.00 0.00 69 1012.4
20260904084040 81 210 1.0 9.0 0.00 0.00 0.00 69 1012.4
20260904083540 81 267 3.0 8.0 0.00 0.00 0.00 69 1012.3
20260904083058 81 273 2.0 7.0 0.00 0.00 0.00 69 1012.2
20260904082540 81 259 2.0 8.0 0.00 0.00 0.00 69 1012.2
20260904082040 81 248 2.0 8.0 0.00 0.00 0.00 69 1012.4
20260904081641 81 257 2.0 8.0 0.00 0.00 0.00 69 1012.3
20260904081040 81 261 2.0 8.0 0.00 0.00 0.00 69 1012.2
20260904080543 81 184 3.0 8.0 0.00 0.00 0.00 69 1012.3
20260904080059 81 238 2.0 9.0 0.00 0.00 0.00 69 1012.2
20260904075545 81 218 2.0 9.0 0.00 0.00 0.00 70 1012.3
20260904075042 81 207 1.0 4.0 0.00 0.00 0.00 70 1012.2
20260904074608 80 234 0.0 4.0 0.00 0.00 0.00 71 1012.3
20260904074040 80 214 1.0 4.0 0.00 0.00 0.00 71 1012.3
20260904073545 80 248 1.0 4.0 0.00 0.00 0.00 72 1012.3
20260904073108 80 0 0.0 3.0 0.00 0.00 0.00 72 1012.4
20260904072543 80 0 0.0 2.0 0.00 0.00 0.00 72 1012.5
20260904072040 80 184 0.0 2.0 0.00 0.00 0.00 72 1012.5
20260904071603 80 0 0.0 1.0 0.00 0.00 0.00 72 1012.4
20260904071040 80 0 0.0 1.0 0.00 0.00 0.00 71 1012.4
20260904070543 81 0 0.0 1.0 0.00 0.00 0.00 71 1012.5
20260904070124 80 0 0.0 2.0 0.00 0.00 0.00 70 1012.6
20260904065540 81 0 0.0 2.0 0.00 0.00 0.00 70 1012.6
20260904065040 81 248 0.0 2.0 0.00 0.00 0.00 70 1012.5
20260904064611 81 0 0.0 2.0 0.00 0.00 0.00 69 1012.5
20260904064042 82 0 0.0 3.0 0.00 0.00 0.00 68 1012.5
20260904063545 82 0 1.0 3.0 0.00 0.00 0.00 68 1012.6
20260904063058 82 0 0.0 3.0 0.00 0.00 0.00 67 1012.6
20260904062543 82 0 1.0 3.0 0.00 0.00 0.00 67 1012.5
20260904062040 82 0 0.0 5.0 0.00 0.00 0.00 67 1012.7
20260904061608 83 213 0.0 5.0 0.00 0.00 0.00 66 1012.7
20260904061040 83 211 0.0 3.0 0.00 0.00 0.00 66 1012.6
20260904060541 83 223 1.0 5.0 0.00 0.00 0.00 67 1012.7
20260904060106 83 180 0.0 5.0 0.00 0.00 0.00 66 1012.7
20260904055540 83 0 1.0 5.0 0.00 0.00 0.00 66 1012.6
20260904055041 83 0 0.0 4.0 0.00 0.00 0.00 65 1012.5
20260904054600 83 210 0.0 4.0 0.00 0.00 0.00 65 1012.5
20260904054040 83 0 1.0 5.0 0.00 0.00 0.00 65 1012.5
20260904053540 83 200 1.0 5.0 0.00 0.00 0.00 64 1012.5
20260904053059 83 250 1.0 4.0 0.00 0.00 0.00 64 1012.4
20260904052541 84 0 1.0 5.0 0.00 0.00 0.00 64 1012.5
20260904052041 84 0 1.0 6.0 0.00 0.00 0.00 64 1012.4
20260904051608 84 237 2.0 6.0 0.00 0.00 0.00 64 1012.5
20260904051040 84 242 1.0 6.0 0.00 0.00 0.00 64 1012.4
20260904050542 84 0 1.0 6.0 0.00 0.00 0.00 63 1012.4
20260904045540 84 0 1.0 5.0 0.00 0.00 0.00 63 1012.3
20260904045043 84 172 1.0 5.0 0.00 0.00 0.00 63 1012.3
20260904044558 84 183 0.0 5.0 0.00 0.00 0.00 63 1012.4
20260904044048 84 0 0.0 5.0 0.00 0.00 0.00 63 1012.4
20260904043544 84 245 0.0 5.0 0.00 0.00 0.00 62 1012.4
20260904043124 84 0 0.0 6.0 0.00 0.00 0.00 62 1012.3
20260904042545 84 231 1.0 6.0 0.00 0.00 0.00 61 1012.4
20260904042046 84 0 0.0 4.0 0.00 0.00 0.00 61 1012.4
20260904041606 85 0 0.0 9.0 0.00 0.00 0.00 61 1012.3
20260904041045 85 0 2.0 9.0 0.00 0.00 0.00 60 1012.3
20260904040544 85 228 0.0 6.0 0.00 0.00 0.00 60 1012.3
20260904040107 85 228 1.0 6.0 0.00 0.00 0.00 59 1012.3
20260904035545 86 0 1.0 6.0 0.00 0.00 0.00 59 1012.3
20260904035044 86 0 1.0 6.0 0.00 0.00 0.00 58 1012.2
20260904034607 86 267 1.0 5.0 0.00 0.00 0.00 58 1012.2
20260904034044 86 234 1.0 5.0 0.00 0.00 0.00 58 1012.3
20260904033545 86 209 0.0 7.0 0.00 0.00 0.00 57 1012.3
20260904033103 86 0 1.0 7.0 0.00 0.00 0.00 57 1012.2
20260904032544 86 138 1.0 4.0 0.00 0.00 0.00 57 1012.2
20260904032044 86 196 0.0 6.0 0.00 0.00 0.00 57 1012.2
20260904031602 86 0 1.0 6.0 0.00 0.00 0.00 57 1012.1
20260904031044 86 192 1.0 6.0 0.00 0.00 0.00 57 1012.1
20260904030547 86 0 0.0 4.0 0.00 0.00 0.00 57 1011.9
20260904030106 86 0 1.0 6.0 0.00 0.00 0.00 57 1011.8
20260904025544 86 0 1.0 6.0 0.00 0.00 0.00 58 1011.8
20260904025044 86 160 1.0 4.0 0.00 0.00 0.00 58 1011.8
20260904024605 86 0 0.0 4.0 0.00 0.00 0.00 58 1011.7
20260904024044 86 163 0.0 6.0 0.00 0.00 0.00 58 1011.7
20260904023543 86 0 1.0 6.0 0.00 0.00 0.00 58 1011.5
20260904023102 86 0 0.0 4.0 0.00 0.00 0.00 58 1011.5
20260904022544 86 164 1.0 4.0 0.00 0.00 0.00 58 1011.5
20260904022045 86 196 0.0 4.0 0.00 0.00 0.00 59 1011.4
20260904021602 86 0 0.0 4.0 0.00 0.00 0.00 59 1011.3
20260904021044 86 161 0.0 3.0 0.00 0.00 0.00 59 1011.3
20260904020544 86 219 1.0 3.0 0.00 0.00 0.00 59 1011.3
20260904015544 87 206 0.0 2.0 0.00 0.00 0.00 59 1011.1
20260904015044 87 0 0.0 2.0 0.00 0.00 0.00 59 1011.2
20260904014643 87 201 0.0 2.0 0.00 0.00 0.00 59 1011.1
20260904014056 87 221 0.0 2.0 0.00 0.00 0.00 59 1010.9
20260904013547 87 0 0.0 2.0 0.00 0.00 0.00 59 1010.9
20260904013103 87 0 0.0 1.0 0.00 0.00 0.00 58 1010.7
20260904012544 87 0 0.0 1.0 0.00 0.00 0.00 57 1010.6
20260904012044 88 0 0.0 1.0 0.00 0.00 0.00 57 1010.6
20260904011602 88 176 0.0 1.0 0.00 0.00 0.00 57 1010.6
20260904011047 88 0 0.0 3.0 0.00 0.00 0.00 56 1010.6
20260904010544 89 0 0.0 3.0 0.00 0.00 0.00 56 1010.4
20260904010100 89 0 0.0 3.0 0.00 0.00 0.00 55 1010.4
20260904005543 89 0 0.0 3.0 0.00 0.00 0.00 55 1010.3
20260904005043 89 0 0.0 3.0 0.00 0.00 0.00 54 1010.4
20260904004603 90 253 0.0 3.0 0.00 0.00 0.00 54 1010.3
20260904004044 90 0 0.0 2.0 0.00 0.00 0.00 53 1010.3
20260904003544 90 0 0.0 2.0 0.00 0.00 0.00 53 1010.4
20260904003110 90 0 0.0 3.0 0.00 0.00 0.00 52 1010.3
20260904002545 91 0 0.0 3.0 0.00 0.00 0.00 52 1010.4
20260904002044 91 0 0.0 5.0 0.00 0.00 0.00 52 1010.4
20260904001602 92 0 0.0 5.0 0.00 0.00 0.00 51 1010.4
20260904001044 92 0 1.0 5.0 0.00 0.00 0.00 50 1010.5
20260904000544 93 196 1.0 5.0 0.00 0.00 0.00 48 1010.5
20260904000142 93 0 1.0 5.0 0.00 0.00 0.00 48 1010.4
20260903235543 93 233 1.0 5.0 0.00 0.00 0.00 47 1010.4
20260903235044 93 144 1.0 5.0 0.00 0.00 0.00 47 1010.4
20260903234604 94 164 0.0 5.0 0.00 0.00 0.00 47 1010.4
20260903234044 94 125 0.0 3.0 0.00 0.00 0.00 47 1010.5
20260903233543 94 0 0.0 4.0 0.00 0.00 0.00 47 1010.5
20260903233103 94 139 1.0 6.0 0.00 0.00 0.00 46 1010.5
20260903232545 95 169 2.0 9.0 0.00 0.00 0.00 45 1010.4
20260903232048 95 0 0.0 9.0 0.00 0.00 0.00 46 1010.5
20260903231618 95 148 2.0 9.0 0.00 0.00 0.00 45 1010.3
20260903231044 95 211 2.0 6.0 0.00 0.00 0.00 45 1010.3
20260903230544 95 180 1.0 5.0 0.00 0.00 0.00 46 1010.3
20260903230108 95 214 1.0 6.0 0.00 0.00 0.00 46 1010.3
20260903225544 95 157 2.0 9.0 0.00 0.00 0.00 45 1010.4
20260903225045 96 188 2.0 10.0 0.00 0.00 0.00 44 1010.3
20260903224603 96 217 3.0 11.0 0.00 0.00 0.00 44 1010.3
20260903224044 96 223 3.0 11.0 0.00 0.00 0.00 44 1010.2
20260903223544 96 211 2.0 10.0 0.00 0.00 0.00 44 1010.2
20260903223108 97 220 3.0 10.0 0.00 0.00 0.00 44 1010.2
20260903222548 97 263 3.0 10.0 0.00 0.00 0.00 44 1010.3
20260903222044 96 229 2.0 10.0 0.00 0.00 0.00 44 1010.2
20260903221559 96 240 1.0 11.0 0.00 0.00 0.00 44 1010.3
20260903221043 96 178 3.0 14.0 0.00 0.00 0.00 44 1010.3
20260903220545 97 200 2.0 16.0 0.00 0.00 0.00 44 1010.4
20260903220114 97 207 3.0 16.0 0.00 0.00 0.00 44 1010.3
20260903215545 97 180 2.0 8.0 0.00 0.00 0.00 45 1010.4
20260903215046 96 129 2.0 8.0 0.00 0.00 0.00 44 1010.4
20260903214605 97 155 2.0 8.0 0.00 0.00 0.00 43 1010.3
20260903214045 97 202 3.0 9.0 0.00 0.00 0.00 44 1010.6
20260903213544 97 221 2.0 12.0 0.00 0.00 0.00 44 1010.5
20260903213105 97 193 3.0 12.0 0.00 0.00 0.00 43 1010.6
20260903212544 97 210 5.0 12.0 0.00 0.00 0.00 43 1010.7
20260903212045 97 225 3.0 12.0 0.00 0.00 0.00 43 1010.7
20260903211602 97 194 3.0 12.0 0.00 0.00 0.00 44 1010.7
20260903211044 97 182 2.0 11.0 0.00 0.00 0.00 44 1010.7
20260903210544 97 128 1.0 11.0 0.00 0.00 0.00 45 1010.7
20260903210103 97 206 3.0 11.0 0.00 0.00 0.00 44 1010.8
20260903205544 96 161 3.0 8.0 0.00 0.00 0.00 45 1010.8
20260903205044 97 229 3.0 12.0 0.00 0.00 0.00 45 1010.9
20260903204613 97 170 4.0 12.0 0.00 0.00 0.00 45 1011.0
20260903204044 97 0 4.0 15.0 0.00 0.00 0.00 46 1011.1
20260903203548 97 232 4.0 15.0 0.00 0.00 0.00 45 1011.1
20260903203106 96 225 3.0 13.0 0.00 0.00 0.00 45 1011.2
20260903202544 97 229 5.0 13.0 0.00 0.00 0.00 46 1011.3
20260903202045 97 169 4.0 12.0 0.00 0.00 0.00 45 1011.3
20260903201604 97 177 4.0 15.0 0.00 0.00 0.00 46 1011.4
20260903201044 96 196 5.0 15.0 0.00 0.00 0.00 46 1011.4
20260903200546 96 278 6.0 15.0 0.00 0.00 0.00 45 1011.4
20260903200104 96 260 6.0 15.0 0.00 0.00 0.00 45 1011.5
20260903195543 96 274 3.0 12.0 0.00 0.00 0.00 47 1011.5
20260903195044 96 139 3.0 12.0 0.00 0.00 0.00 46 1011.6
20260903194602 96 194 5.0 11.0 0.00 0.00 0.00 47 1011.8
20260903194043 96 191 3.0 15.0 0.00 0.00 0.00 48 1011.8
20260903193547 96 221 2.0 15.0 0.00 0.00 0.00 49 1011.8
20260903193102 96 216 2.0 7.0 0.00 0.00 0.00 48 1011.9
20260903192544 96 218 2.0 15.0 0.00 0.00 0.00 48 1011.9
20260903192044 95 182 1.0 16.0 0.00 0.00 0.00 50 1012.0
20260903191606 96 151 5.0 16.0 0.00 0.00 0.00 48 1012.0
20260903191044 96 194 3.0 11.0 0.00 0.00 0.00 48 1012.1
20260903190543 96 131 2.0 10.0 0.00 0.00 0.00 48 1012.2
20260903190107 95 173 3.0 11.0 0.00 0.00 0.00 48 1012.2
20260903185543 96 254 3.0 11.0 0.00 0.00 0.00 49 1012.3
20260903185043 95 161 4.0 13.0 0.00 0.00 0.00 49 1012.3
20260903184600 95 128 5.0 13.0 0.00 0.00 0.00 49 1012.5